Weather History for Provo, UT

Change the Weather History Date:

Wednesday, October 24, 2012

  Actual Average Record
Temperature  
Mean Temperature 38 °F -  
Max Temperature 44 °F 55 °F 78 °F (2014)
Min Temperature 32 °F 33 °F 24 °F (2001)
Degree Days  
Heating Degree Days 27    
Moisture  
Dew Point 32 °F    
Average Humidity 79    
Maximum Humidity 93    
Minimum Humidity 57    
Precipitation  
Precipitation 0.01 in - - ()
Sea Level Pressure  
Sea Level Pressure 30.01 in    
Wind  
Wind Speed 14 mph (NW)    
Max Wind Speed 24 mph    
Max Gust Speed 31 mph    
Visibility 11 miles    
Events Rain    
Averages and records for this station are not official NWS values.
T = Trace of Precipitation, MM = Missing Value Source: NWS Daily Summary

Daily Weather History Graph

Daily Weather History Graph

Search for Another Location

Airport:

Trip Planner

Search our weather history database for the weather conditions in past years. The results will help you decide how hot, cold, wet, or windy it might be!

Date:

Astronomy

Oct. 24, 2012 Rise Set
Actual Time 7:47 AM MDT 6:33 PM MDT
Civil Twilight 7:20 AM MDT 7:01 PM MDT
Nautical Twilight 6:48 AM MDT 7:32 PM MDT
Astronomical Twilight 6:16 AM MDT 8:04 PM MDT
Moon 3:51 PM MDT (10/24) 2:46 AM MDT (10/24)
Length of Visible Light 11h 41m
Length of Day
10h 45m
Waxing Gibbous, 76% of the Moon is Illuminated
Oct 24
Waxing Gibbous
Oct 29
Full
Nov 6
Last Quarter
Nov 13
New
Nov 20
First Quarter

Hourly Weather History & Observations

Time (MDT) Temp. Windchill Dew Point Humidity Pressure Visibility Wind Dir Wind Speed Gust Speed Precip Events Conditions
12:15 AM 41.0 °F 31.1 °F 33.8 °F 76% 29.93 in 10.0 mi NW 23.0 mph 31.1 mph N/A   Overcast
12:35 AM 39.2 °F 28.5 °F 33.8 °F 81% 29.94 in 10.0 mi NW 24.2 mph 28.8 mph N/A   Overcast
12:55 AM 39.2 °F 29.3 °F 33.8 °F 81% 29.95 in 10.0 mi NW 20.7 mph 26.5 mph N/A   Overcast
1:15 AM 39.2 °F 29.8 °F 33.8 °F 81% 29.94 in 10.0 mi NW 18.4 mph - N/A   Overcast
1:35 AM 39.2 °F 30.2 °F 33.8 °F 81% 29.95 in 10.0 mi NW 17.3 mph 23.0 mph N/A   Overcast
2:35 AM 39.2 °F 29.8 °F 33.8 °F 81% 29.95 in 10.0 mi NW 18.4 mph - N/A   Overcast
2:55 AM 39.2 °F 30.2 °F 33.8 °F 81% 29.95 in 10.0 mi NW 17.3 mph 21.9 mph N/A   Overcast
3:15 AM 39.2 °F 30.2 °F 33.8 °F 81% 29.95 in 10.0 mi NW 17.3 mph - N/A   Overcast
3:35 AM 39.2 °F 30.8 °F 32.0 °F 75% 29.95 in 10.0 mi NW 15.0 mph 19.6 mph N/A   Overcast
3:55 AM 39.2 °F 31.2 °F 32.0 °F 75% 29.95 in 10.0 mi NW 13.8 mph 18.4 mph N/A   Overcast
4:15 AM 39.2 °F 30.8 °F 32.0 °F 75% 29.94 in 10.0 mi WNW 15.0 mph - N/A   Overcast
4:35 AM 39.2 °F 30.2 °F 30.2 °F 70% 29.94 in 10.0 mi WNW 17.3 mph - N/A   Overcast
4:55 AM 39.2 °F 29.8 °F 30.2 °F 70% 29.95 in 10.0 mi NW 18.4 mph - N/A   Overcast
5:55 AM 37.4 °F 27.5 °F 32.0 °F 81% 29.96 in 10.0 mi NW 18.4 mph - N/A   Overcast
6:35 AM 37.4 °F 28.9 °F 32.0 °F 81% 29.97 in 10.0 mi NW 13.8 mph 17.3 mph 0.01 in   Overcast
6:47 AM 37.4 °F 28.9 °F 32.0 °F 81% 29.97 in 10.0 mi WNW 13.8 mph - N/A Rain Light Rain
8:47 AM 35.6 °F 31.7 °F 33.8 °F 93% 29.99 in 15.0 mi East 4.6 mph - N/A   Overcast
9:13 AM 35.6 °F 32.8 °F 33.8 °F 93% 30.00 in 10.0 mi NE 3.5 mph - N/A   Overcast
9:54 AM 37.4 °F - 33.8 °F 87% 29.99 in 10.0 mi Calm Calm - N/A   Overcast
10:49 AM 37.4 °F 31.4 °F 35.6 °F 93% 30.00 in 15.0 mi SSE 8.1 mph - N/A   Overcast
11:47 AM 39.2 °F 37.0 °F 35.6 °F 87% 30.00 in 15.0 mi SE 3.5 mph - N/A   Overcast
12:50 PM 41.0 °F 37.1 °F 35.6 °F 81% 30.00 in 10.0 mi Variable 5.8 mph - N/A   Mostly Cloudy
1:59 PM 41.0 °F 39.0 °F 33.8 °F 76% 30.00 in 15.0 mi Variable 3.5 mph - N/A   Overcast
2:59 PM 42.8 °F 41.1 °F 30.2 °F 61% 30.00 in 15.0 mi Variable 3.5 mph - N/A   Mostly Cloudy
3:59 PM 44.6 °F 43.1 °F 30.2 °F 57% 30.01 in 15.0 mi Variable 3.5 mph - N/A   Mostly Cloudy
5:50 PM 41.0 °F 37.1 °F 30.2 °F 65% 30.04 in 15.0 mi Variable 5.8 mph - N/A   Mostly Cloudy
7:58 PM 39.2 °F - 32.0 °F 75% 30.09 in 15.0 mi Calm Calm - N/A   Mostly Cloudy
8:59 PM 35.6 °F - 30.2 °F 81% 30.10 in 15.0 mi Calm Calm - N/A   Scattered Clouds
9:35 PM 37.4 °F 32.1 °F 30.2 °F 75% 30.09 in 10.0 mi SSE 6.9 mph - N/A   Clear
9:55 PM 35.6 °F - 30.2 °F 81% 30.10 in 10.0 mi Calm Calm - N/A   Clear
10:35 PM 33.8 °F 29.6 °F 30.2 °F 87% 30.11 in 10.0 mi ESE 4.6 mph - N/A   Clear
10:55 PM 35.6 °F 31.7 °F 30.2 °F 81% 30.11 in 10.0 mi SE 4.6 mph - N/A   Clear
11:15 PM 33.8 °F 27.7 °F 28.4 °F 81% 30.12 in 10.0 mi SSE 6.9 mph - N/A   Clear
11:35 PM 32.0 °F 27.5 °F 28.4 °F 87% 30.12 in 10.0 mi SE 4.6 mph - N/A   Clear
11:55 PM 33.8 °F 28.6 °F 30.2 °F 87% 30.12 in 10.0 mi SE 5.8 mph - N/A   Clear